Regional Weather Roundup
Issued by NWS San Angelo, TX

Home | Current Version | Previous Version | Text Only | Print | Product List | Glossary On
Versions: 1 2 3 4 5 6 7 8 9 10 11 12 13 14 15 16 17 18 19 20 21 22 23 24 25 26 27 28 29 30 31 32 33 34 35 36 37 38 39 40 41 42 43 44 45 46 47 48 49 50
000
ASUS44 KSJT 281458
RWRSJT
WEST CENTRAL TEXAS REGIONAL WEATHER ROUNDUP
NATIONAL WEATHER SERVICE SAN ANGELO TX
1000 AM CDT SAT MAR 28 2015

NOTE: "FAIR" INDICATES FEW OR NO CLOUDS BELOW 12,000 FEET WITH NO
SIGNIFICANT WEATHER AND/OR OBSTRUCTIONS TO VISIBILITY.

TXZ049-054-064>066-071>073-076>078-098-099-113-114-127-128-139-140-
154-155-168>170-281600
...LOCATIONS ACROSS WEST CENTRAL TEXAS...

CITY           SKY/WX    TMP DP  RH WIND       PRES   REMARKS
SAN ANGELO     SUNNY     67  39  35 S16G24    30.08S
ABILENE        SUNNY     66  37  34 SW26G37   30.05S
DYESS AFB      NOT AVBL
JUNCTION       SUNNY     64  37  36 W5        30.13S
SWEETWATER     NOT AVBL
BROWNWOOD      NOT AVBL
COLEMAN        NOT AVBL
SONORA         NOT AVBL
OZONA          NOT AVBL
BRADY          NOT AVBL
$$

TEXAS PANHANDLE/OKLAHOMA PANHANDLE

CITY           SKY/WX    TMP DP  RH WIND       PRES   REMARKS
AMARILLO       SUNNY     59  35  40 W10       30.07S
BORGER         SUNNY     57  33  40 W8        30.06S
CANADIAN       NOT AVBL
DALHART        SUNNY     63  35  35 W7        30.10R
DUMAS          NOT AVBL
GUYMON         NOT AVBL
HEREFORD       NOT AVBL
PAMPA          NOT AVBL
PERRYTON       NOT AVBL
$$

SOUTHERN PANHANDLE/SOUTH PLAINS/ROLLING PLAINS

CITY           SKY/WX    TMP DP  RH WIND       PRES   REMARKS
LUBBOCK        MOSUNNY   57  34  41 W12       30.05S
SNYDER         NOT AVBL
CHILDRESS      SUNNY     58  41  53 W5        30.03S
SEMINOLE       NOT AVBL
$$

PERMIAN BASIN

CITY           SKY/WX    TMP DP  RH WIND       PRES   REMARKS
MIDLAND        SUNNY     63  39  41 SW10      30.08S
ODESSA         SUNNY     64  36  35 SW12      30.09S
WINK           SUNNY     59  39  47 CALM      30.09R
$$

FAR WEST/SOUTHWEST MOUNTAINS/TRANS PECOS

CITY           SKY/WX    TMP DP  RH WIND       PRES   REMARKS
ALPINE         NOT AVBL
DRYDEN           N/A     66  39  37 SW13      30.11S
EL PASO        SUNNY     58  23  26 N5        30.18R
FORT STOCKTON  SUNNY     71  32  23 SW17      30.11R
GUADALUPE PASS SUNNY     60  20  21 SW15      30.24R
MARFA          NOT AVBL
PECOS          NOT AVBL
$$

DALLAS/FORT WORTH METROPLEX

CITY           SKY/WX    TMP DP  RH WIND       PRES   REMARKS
DFW AIRPORT    MOSUNNY   58  42  55 S14       30.09F
FTW MEACHAM    SUNNY     60  42  51 S12       30.08F
DAL-EXECUTIVE  SUNNY     59  39  47 S9G20     30.09S
GRAND PRAIRIE  SUNNY     57  43  58 S9        30.11
ADDISON        NOT AVBL
MESQUITE       SUNNY     55  41  58 SE15      30.12S
LANCASTER      NOT AVBL
$$

NORTH CENTRAL TEXAS

CITY           SKY/WX    TMP DP  RH WIND       PRES   REMARKS
SHRMAN/DENISON NOT AVBL
GAINESVILLE    NOT AVBL
BRIDGEPORT     NOT AVBL
DENTON         SUNNY     58  42  55 S10       30.09S
WAXAHACHIE     NOT AVBL
GRANBURY       NOT AVBL
$$

WESTERN NORTH TEXAS

CITY           SKY/WX    TMP DP  RH WIND       PRES   REMARKS
WICHITA FALLS  MOSUNNY   57  43  59 S9        30.04F
VERNON         NOT AVBL
BRECKENRIDGE   NOT AVBL
COMANCHE       NOT AVBL
$$

CENTRAL AND SOUTH CENTRAL TEXAS

CITY           SKY/WX    TMP DP  RH WIND       PRES   REMARKS
AUSTIN/BERGSTM SUNNY     65  47  52 SW8       30.13S
WACO           SUNNY     60  45  57 S12       30.11S
HILLSBORO      NOT AVBL
TEMPLE         NOT AVBL
KILLEEN-GRAY   NOT AVBL
FORT HOOD      NOT AVBL
GEORGETOWN     SUNNY     64  45  48 SW12G18   30.11F
LAGO VISTA     NOT AVBL
SAN MARCOS     SUNNY     63  43  48 SW16G22   30.15S
NEW BRAUNFELS  SUNNY     68  43  40 SW13      30.14F
RANDOLPH AFB   NOT AVBL
SAN ANTONIO    SUNNY     67  37  33 SW13G21   30.17R
STINSON        SUNNY     64  45  49 SW7       30.16R
PLEASANTON     NOT AVBL
LA GRANGE      NOT AVBL
GIDDINGS       NOT AVBL
$$

EAST TEXAS

CITY           SKY/WX    TMP DP  RH WIND       PRES   REMARKS
PARIS          NOT AVBL
CLARKSVILLE    NOT AVBL
TYLER          NOT AVBL
LONGVIEW       MOSUNNY   56  42  59 SE8       30.15R
PALESTINE      NOT AVBL
NACOGDOCHES    NOT AVBL
$$

TEXAS HILL COUNTRY AND EDWARDS PLATEAU

CITY           SKY/WX    TMP DP  RH WIND       PRES   REMARKS
LLANO          NOT AVBL
HORSESHOE BAY  NOT AVBL
KERRVILLE      NOT AVBL
FREDERICKSBRG  NOT AVBL
ROCKSPRINGS    NOT AVBL
HONDO          SUNNY     62  44  51 SW7       30.19R
UVALDE         NOT AVBL
DEL RIO        SUNNY     64  41  42 SE9       30.12R
$$

SOUTHEAST TEXAS

CITY           SKY/WX    TMP DP  RH WIND       PRES   REMARKS
COLLEGE STN    SUNNY     64  44  48 S13       30.16R
CALDWELL       NOT AVBL
CROCKETT       NOT AVBL
BRENHAM        NOT AVBL
HUNTSVILLE     NOT AVBL
CONROE         SUNNY     62  43  49 SE8       30.18S
HOUSTON BUSH   MOSUNNY   66  51  58 SE9       30.18R
HOUSTON HOBBY  MOSUNNY   68  56  65 S6        30.18R
PERLAND        SUNNY     68  56  65 S6        30.20R
WHARTON        NOT AVBL
$$

THE UPPER TEXAS COAST

CITY           SKY/WX    TMP DP  RH WIND       PRES   REMARKS
ORANGE         NOT AVBL
PORT ARTHUR    SUNNY     67  54  63 E10       30.19S
GALVESTON      SUNNY     67  61  81 S10       30.19S
ANGLETON       SUNNY     65  57  75 S7        30.18F
BAY CITY       NOT AVBL
$$

TEXAS COASTAL BEND, RIO GRANDE PLAINS DEEP SOUTH TEXAS

CITY           SKY/WX    TMP DP  RH WIND       PRES   REMARKS
VICTORIA       SUNNY     64  49  57 SW14      30.18R
BEEVILLE       NOT AVBL
ROCKPORT         N/A     67  52  58 VRB7      30.18F
PORT ARANSAS   NOT AVBL
PORT LAVACA    NOT AVBL
CORPUS CHRISTI SUNNY     61  54  77 SW16      30.19S
KINGSVILLE NAS SUNNY     65  58  78 S10       30.19S
COTULLA        SUNNY     64  44  48 S7        30.17S
LAREDO         NOT AVBL
BROWNSVILLE    SUNNY     68  60  75 S13       30.21R
PORT ISABEL    SUNNY     68  60  75 S12       30.20R
HEBBRONVILLE   NOT AVBL
MCALLEN        SUNNY     68  55  63 S12       30.21R
WESLACO        NOT AVBL
FALFURRIAS     NOT AVBL
EDINBURG       NOT AVBL
$$



USA.gov is the U.S. government's official web portal to all federal, state and local government web resources and services.